Time,TemperatureF,DewpointF,PressureIn,WindDirection,WindDirectionDegrees,WindSpeedMPH,WindSpeedGustMPH,Humidity,HourlyPrecipIn,Conditions,Clouds,dailyrainin,SoftwareType,DateUTC
2013-03-07 00:06:00,30.5,27.0,30.29,North,5,0.0,2.0,87,0.00,,,0.00,weatherlink.com 1.10,2013-03-07 06:06:00,
2013-03-07 00:21:00,29.9,26.0,30.30,North,5,0.0,1.0,85,0.00,,,0.00,weatherlink.com 1.10,2013-03-07 06:21:00,
2013-03-07 00:36:00,28.8,25.0,30.30,North,5,0.0,0.0,86,0.00,,,0.00,weatherlink.com 1.10,2013-03-07 06:36:00,
2013-03-07 00:51:00,28.3,26.0,30.30,North,5,0.0,0.0,89,0.00,,,0.00,weatherlink.com 1.10,2013-03-07 06:51:00,
2013-03-07 01:06:00,27.1,25.0,30.31,North,5,0.0,0.0,90,0.00,,,0.00,weatherlink.com 1.10,2013-03-07 07:06:00,
2013-03-07 01:21:00,27.1,25.0,30.31,North,5,0.0,0.0,91,0.00,,,0.00,weatherlink.com 1.10,2013-03-07 07:21:00,
2013-03-07 01:36:00,26.7,25.0,30.31,North,5,0.0,0.0,91,0.00,,,0.00,weatherlink.com 1.10,2013-03-07 07:36:00,
2013-03-07 01:51:00,26.1,24.0,30.31,North,5,0.0,0.0,92,0.00,,,0.00,weatherlink.com 1.10,2013-03-07 07:51:00,
2013-03-07 02:21:00,26.2,25.0,30.31,North,5,1.0,2.0,93,0.00,,,0.00,weatherlink.com 1.10,2013-03-07 08:21:00,
2013-03-07 02:36:00,26.2,25.0,30.31,North,5,1.0,2.0,93,0.00,,,0.00,weatherlink.com 1.10,2013-03-07 08:36:00,
2013-03-07 02:51:00,26.7,25.0,30.31,North,5,0.0,1.0,93,0.00,,,0.00,weatherlink.com 1.10,2013-03-07 08:51:00,
2013-03-07 03:06:00,26.5,25.0,30.31,North,5,1.0,1.0,92,0.00,,,0.00,weatherlink.com 1.10,2013-03-07 09:06:00,
2013-03-07 03:21:00,26.2,25.0,30.32,North,5,0.0,1.0,93,0.00,,,0.00,weatherlink.com 1.10,2013-03-07 09:21:00,
2013-03-07 03:36:00,26.5,25.0,30.32,North,5,0.0,0.0,93,0.00,,,0.00,weatherlink.com 1.10,2013-03-07 09:36:00,
2013-03-07 03:51:00,27.0,25.0,30.32,North,5,0.0,0.0,92,0.00,,,0.00,weatherlink.com 1.10,2013-03-07 09:51:00,
2013-03-07 04:06:00,26.1,24.0,30.33,North,5,0.0,1.0,92,0.00,,,0.00,weatherlink.com 1.10,2013-03-07 10:06:00,
2013-03-07 04:21:00,25.6,24.0,30.34,North,5,0.0,0.0,93,0.00,,,0.00,weatherlink.com 1.10,2013-03-07 10:21:00,
2013-03-07 04:36:00,26.1,24.0,30.34,North,5,0.0,0.0,93,0.00,,,0.00,weatherlink.com 1.10,2013-03-07 10:36:00,
2013-03-07 04:51:00,26.1,24.0,30.35,North,5,0.0,0.0,93,0.00,,,0.00,weatherlink.com 1.10,2013-03-07 10:51:00,
2013-03-07 05:06:00,26.1,24.0,30.35,North,5,0.0,0.0,93,0.00,,,0.00,weatherlink.com 1.10,2013-03-07 11:06:00,
2013-03-07 05:21:00,26.3,25.0,30.35,North,5,0.0,0.0,93,0.00,,,0.00,weatherlink.com 1.10,2013-03-07 11:21:00,
2013-03-07 05:36:00,26.6,25.0,30.35,North,5,0.0,1.0,93,0.00,,,0.00,weatherlink.com 1.10,2013-03-07 11:36:00,
2013-03-07 05:51:00,26.3,25.0,30.36,North,5,0.0,0.0,93,0.00,,,0.00,weatherlink.com 1.10,2013-03-07 11:51:00,
2013-03-07 06:06:00,25.9,24.0,30.37,North,5,0.0,1.0,93,0.00,,,0.00,weatherlink.com 1.10,2013-03-07 12:06:00,
2013-03-07 06:21:00,26.5,25.0,30.37,North,5,0.0,0.0,94,0.00,,,0.00,weatherlink.com 1.10,2013-03-07 12:21:00,
2013-03-07 06:37:00,27.0,25.0,30.37,North,5,0.0,0.0,93,0.00,,,0.00,weatherlink.com 1.10,2013-03-07 12:37:00,
2013-03-07 06:52:00,28.3,26.0,30.37,North,5,0.0,2.0,91,0.00,,,0.00,weatherlink.com 1.10,2013-03-07 12:52:00,
2013-03-07 07:07:00,29.3,27.0,30.37,North,9,1.0,5.0,89,0.00,,,0.00,weatherlink.com 1.10,2013-03-07 13:07:00,
2013-03-07 07:22:00,30.2,27.0,30.38,ENE,61,2.0,6.0,88,0.00,,,0.00,weatherlink.com 1.10,2013-03-07 13:22:00,
2013-03-07 07:37:00,30.8,27.0,30.38,East,84,3.0,7.0,86,0.00,,,0.00,weatherlink.com 1.10,2013-03-07 13:37:00,
2013-03-07 07:52:00,31.5,28.0,30.38,ENE,63,2.0,8.0,86,0.00,,,0.00,weatherlink.com 1.10,2013-03-07 13:52:00,
2013-03-07 08:07:00,31.8,28.0,30.38,East,80,1.0,5.0,87,0.00,,,0.00,weatherlink.com 1.10,2013-03-07 14:07:00,
2013-03-07 08:22:00,31.8,28.0,30.38,ENE,78,1.0,8.0,84,0.00,,,0.00,weatherlink.com 1.10,2013-03-07 14:22:00,
2013-03-07 08:37:00,33.5,29.0,30.38,ENE,67,0.0,7.0,84,0.00,,,0.00,weatherlink.com 1.10,2013-03-07 14:37:00,
2013-03-07 08:52:00,33.1,28.0,30.38,East,101,2.0,6.0,81,0.00,,,0.00,weatherlink.com 1.10,2013-03-07 14:52:00,
2013-03-07 09:07:00,33.5,28.0,30.37,NE,55,1.0,9.0,81,0.00,,,0.00,weatherlink.com 1.10,2013-03-07 15:07:00,
2013-03-07 09:22:00,34.0,29.0,30.38,East,86,1.0,8.0,81,0.00,,,0.00,weatherlink.com 1.10,2013-03-07 15:22:00,
2013-03-07 09:37:00,34.3,28.0,30.39,ENE,68,5.0,8.0,79,0.00,,,0.00,weatherlink.com 1.10,2013-03-07 15:37:00,
2013-03-07 09:52:00,34.5,29.0,30.38,East,86,1.0,6.0,79,0.00,,,0.00,weatherlink.com 1.10,2013-03-07 15:52:00,
2013-03-07 10:07:00,34.1,28.0,30.38,NNE,32,5.0,9.0,78,0.00,,,0.00,weatherlink.com 1.10,2013-03-07 16:07:00,
2013-03-07 10:22:00,34.7,29.0,30.38,ENE,61,4.0,8.0,78,0.00,,,0.00,weatherlink.com 1.10,2013-03-07 16:22:00,
2013-03-07 10:37:00,35.9,30.0,30.38,East,85,3.0,8.0,78,0.00,,,0.00,weatherlink.com 1.10,2013-03-07 16:37:00,
2013-03-07 10:52:00,36.8,31.0,30.39,NNE,13,3.0,7.0,79,0.00,,,0.00,weatherlink.com 1.10,2013-03-07 16:52:00,
2013-03-07 11:22:00,37.0,30.0,30.38,NNE,12,4.0,10.0,75,0.00,,,0.00,weatherlink.com 1.10,2013-03-07 17:22:00,
2013-03-07 11:37:00,38.1,31.0,30.37,ENE,76,5.0,8.0,75,0.00,,,0.00,weatherlink.com 1.10,2013-03-07 17:37:00,
2013-03-07 11:53:00,38.5,30.0,30.37,NNE,19,5.0,10.0,72,0.00,,,0.00,weatherlink.com 1.10,2013-03-07 17:53:00,
2013-03-07 12:08:00,39.1,30.0,30.36,NNE,18,0.0,8.0,71,0.00,,,0.00,weatherlink.com 1.10,2013-03-07 18:08:00,
2013-03-07 12:23:00,39.6,31.0,30.36,NNE,16,0.0,8.0,70,0.00,,,0.00,weatherlink.com 1.10,2013-03-07 18:23:00,
2013-03-07 12:38:00,41.0,32.0,30.35,NE,52,6.0,10.0,71,0.00,,,0.00,weatherlink.com 1.10,2013-03-07 18:38:00,
2013-03-07 12:53:00,40.4,32.0,30.35,North,360,5.0,9.0,71,0.00,,,0.00,weatherlink.com 1.10,2013-03-07 18:53:00,
2013-03-07 13:08:00,41.7,33.0,30.34,ENE,61,6.0,9.0,71,0.00,,,0.00,weatherlink.com 1.10,2013-03-07 19:08:00,
2013-03-07 13:23:00,41.8,33.0,30.34,North,5,7.0,10.0,71,0.00,,,0.00,weatherlink.com 1.10,2013-03-07 19:23:00,
2013-03-07 13:38:00,41.1,31.0,30.33,NE,41,0.0,8.0,67,0.00,,,0.00,weatherlink.com 1.10,2013-03-07 19:38:00,
2013-03-07 13:53:00,41.9,31.0,30.32,ENE,74,0.0,7.0,66,0.00,,,0.00,weatherlink.com 1.10,2013-03-07 19:53:00,
2013-03-07 14:08:00,42.4,32.0,30.32,NNE,20,6.0,9.0,66,0.00,,,0.00,weatherlink.com 1.10,2013-03-07 20:08:00,
2013-03-07 14:23:00,43.0,31.0,30.32,NE,54,1.0,8.0,64,0.00,,,0.00,weatherlink.com 1.10,2013-03-07 20:23:00,
2013-03-07 14:38:00,43.1,32.0,30.32,ENE,67,4.0,9.0,65,0.00,,,0.00,weatherlink.com 1.10,2013-03-07 20:38:00,
2013-03-07 14:53:00,43.7,32.0,30.32,ENE,78,4.0,7.0,64,0.00,,,0.00,weatherlink.com 1.10,2013-03-07 20:53:00,
2013-03-07 15:08:00,44.1,33.0,30.32,NNE,17,1.0,8.0,65,0.00,,,0.00,weatherlink.com 1.10,2013-03-07 21:08:00,
2013-03-07 15:23:00,43.7,32.0,30.31,ESE,104,2.0,8.0,63,0.00,,,0.00,weatherlink.com 1.10,2013-03-07 21:23:00,
2013-03-07 15:53:00,44.3,32.0,30.30,East,98,2.0,6.0,63,0.00,,,0.00,weatherlink.com 1.10,2013-03-07 21:53:00,
2013-03-07 16:08:00,44.3,32.0,30.30,ENE,76,0.0,8.0,62,0.00,,,0.00,weatherlink.com 1.10,2013-03-07 22:08:00,
2013-03-07 16:23:00,44.4,32.0,30.30,ENE,76,5.0,5.0,62,0.00,,,0.00,weatherlink.com 1.10,2013-03-07 22:23:00,
2013-03-07 16:38:00,44.0,31.0,30.29,ENE,71,6.0,8.0,61,0.00,,,0.00,weatherlink.com 1.10,2013-03-07 22:38:00,
2013-03-07 16:53:00,44.2,32.0,30.30,East,80,0.0,4.0,63,0.00,,,0.00,weatherlink.com 1.10,2013-03-07 22:53:00,
2013-03-07 17:08:00,43.5,32.0,30.30,East,80,0.0,2.0,63,0.00,,,0.00,weatherlink.com 1.10,2013-03-07 23:08:00,
2013-03-07 17:23:00,42.8,32.0,30.30,ENE,71,0.0,7.0,66,0.00,,,0.00,weatherlink.com 1.10,2013-03-07 23:23:00,
2013-03-07 17:38:00,42.0,31.0,30.30,ENE,65,2.0,6.0,65,0.00,,,0.00,weatherlink.com 1.10,2013-03-07 23:38:00,
2013-03-07 17:53:00,41.1,31.0,30.30,East,92,0.0,6.0,67,0.00,,,0.00,weatherlink.com 1.10,2013-03-07 23:53:00,
2013-03-07 18:08:00,38.8,31.0,30.31,East,92,0.0,1.0,73,0.00,,,0.00,weatherlink.com 1.10,2013-03-08 00:08:00,
2013-03-07 18:38:00,39.8,30.0,30.31,ENE,70,2.0,6.0,69,0.00,,,0.00,weatherlink.com 1.10,2013-03-08 00:38:00,
2013-03-07 18:53:00,39.5,30.0,30.32,ENE,65,2.0,7.0,70,0.00,,,0.00,weatherlink.com 1.10,2013-03-08 00:53:00,
2013-03-07 19:08:00,38.9,30.0,30.32,NE,56,4.0,8.0,71,0.00,,,0.00,weatherlink.com 1.10,2013-03-08 01:08:00,
2013-03-07 19:23:00,38.7,30.0,30.32,East,84,1.0,8.0,72,0.00,,,0.00,weatherlink.com 1.10,2013-03-08 01:23:00,
2013-03-07 19:38:00,37.8,30.0,30.32,East,79,1.0,6.0,74,0.00,,,0.00,weatherlink.com 1.10,2013-03-08 01:38:00,
2013-03-07 19:53:00,36.6,30.0,30.32,East,88,0.0,4.0,77,0.00,,,0.00,weatherlink.com 1.10,2013-03-08 01:53:00,
2013-03-07 20:08:00,35.4,30.0,30.32,East,100,0.0,1.0,80,0.00,,,0.00,weatherlink.com 1.10,2013-03-08 02:08:00,
2013-03-07 20:23:00,34.9,30.0,30.32,ESE,105,1.0,4.0,81,0.00,,,0.00,weatherlink.com 1.10,2013-03-08 02:23:00,
2013-03-07 20:38:00,33.7,29.0,30.32,ESE,103,0.0,0.0,84,0.00,,,0.00,weatherlink.com 1.10,2013-03-08 02:38:00,
2013-03-07 20:53:00,32.5,29.0,30.32,ESE,103,0.0,0.0,85,0.00,,,0.00,weatherlink.com 1.10,2013-03-08 02:53:00,
2013-03-07 21:08:00,32.2,29.0,30.32,ESE,103,0.0,0.0,86,0.00,,,0.00,weatherlink.com 1.10,2013-03-08 03:08:00,
2013-03-07 21:23:00,33.4,29.0,30.31,ESE,103,0.0,2.0,85,0.00,,,0.00,weatherlink.com 1.10,2013-03-08 03:23:00,
2013-03-07 21:38:00,32.8,29.0,30.31,East,86,0.0,0.0,85,0.00,,,0.00,weatherlink.com 1.10,2013-03-08 03:38:00,
2013-03-07 21:53:00,32.4,29.0,30.32,East,86,0.0,0.0,86,0.00,,,0.00,weatherlink.com 1.10,2013-03-08 03:53:00,
2013-03-07 22:08:00,34.3,30.0,30.32,East,80,1.0,5.0,84,0.00,,,0.00,weatherlink.com 1.10,2013-03-08 04:08:00,
2013-03-07 22:23:00,34.7,30.0,30.33,NE,52,2.0,5.0,82,0.00,,,0.00,weatherlink.com 1.10,2013-03-08 04:23:00,
2013-03-07 22:38:00,34.3,30.0,30.33,NE,47,1.0,6.0,83,0.00,,,0.00,weatherlink.com 1.10,2013-03-08 04:38:00,
2013-03-07 22:53:00,33.9,29.0,30.33,ENE,68,1.0,6.0,83,0.00,,,0.00,weatherlink.com 1.10,2013-03-08 04:53:00,
2013-03-07 23:08:00,33.5,29.0,30.33,ENE,66,1.0,5.0,84,0.00,,,0.00,weatherlink.com 1.10,2013-03-08 05:08:00,
2013-03-07 23:23:00,33.4,29.0,30.32,East,88,2.0,6.0,84,0.00,,,0.00,weatherlink.com 1.10,2013-03-08 05:23:00,
2013-03-07 23:38:00,33.2,29.0,30.32,ENE,57,7.0,7.0,85,0.00,,,0.00,weatherlink.com 1.10,2013-03-08 05:38:00,
2013-03-07 23:53:00,32.7,29.0,30.32,ENE,76,1.0,5.0,85,0.00,,,0.00,weatherlink.com 1.10,2013-03-08 05:53:00,